Location: Waco, TX
(31.5480°N, 97.1670°W)
Time: 14:37:18
(UTC-06:00)

ISS - Pass Details

Date: 18 February 2018
Orbit: 402 x 407 km, 51.6° (Epoch: 24 February)

Event Time Altitude Azimuth Distance (km) Brightness Sun altitude
Rises 15:43:25 0° 334° (NNW) 2,315 -0.1 29.0°
Reaches altitude 10° 15:46:27 10° 4° (N) 1,454 -1.3 28.5°
Maximum altitude 15:47:59 13° 33° (NNE) 1,301 -1.7 28.2°
Drops below altitude 10° 15:49:31 10° 61° (ENE) 1,451 -1.5 28.0°
Sets 15:52:31 0° 92° (E) 2,308 -0.4 27.5°
